GFSSGP_850_spd_057.txt.gz
Wind_Speed
9 9 5 5 7 8 16 19 2 1 9 12 5 4 9 12 7 4 8 6 8 13 15 16 13 18 21 22 21 20 20 16 16 15 15 16 17 17 17 16 15 14 14 12 11 10 9 8 8
6 7 5 9 7 12 12 17 6 11 8 6 8 10 12 10 16 7 8 10 6 13 15 17 16 20 23 24 23 21 20 19 18 18 18 18 18 18 17 16 14 14 13 12 11 9 8 7 7
6 5 11 5 12 14 12 11 2 7 2 7 7 10 11 3 12 6 9 8 3 12 16 19 20 22 25 27 26 25 23 22 21 20 21 20 19 18 17 15 14 13 11 10 10 9 8 7 6
6 10 9 9 15 16 8 4 8 2 5 6 4 5 4 5 9 13 13 8 7 14 17 21 23 24 27 28 30 28 26 25 24 23 21 20 19 17 15 14 12 10 10 9 8 8 7 6 4
11 14 12 16 17 18 3 14 12 12 11 7 9 10 5 8 9 16 12 8 11 16 19 23 25 26 28 29 30 31 28 26 24 23 22 20 18 16 14 13 11 9 8 7 6 6 4 3 3
18 19 15 16 21 16 10 12 12 16 11 10 5 11 7 4 13 16 11 5 13 19 21 25 28 29 29 31 31 31 30 28 25 23 21 19 17 15 14 12 10 8 7 6 5 4 2 2 2
20 15 20 23 21 16 11 14 16 13 14 8 6 5 5 6 12 14 12 3 12 20 24 25 31 32 31 31 31 31 30 29 27 25 23 21 18 16 14 12 10 8 7 6 5 4 4 5 6
25 16 28 23 20 22 14 15 15 16 15 3 1 9 2 9 11 12 10 2 10 20 24 23 31 35 34 33 32 31 30 30 29 27 25 22 20 17 15 13 11 10 8 8 7 7 7 9 10
24 18 22 29 26 20 19 14 13 18 13 12 12 10 8 8 10 13 10 5 9 20 24 24 25 30 33 33 33 32 30 30 29 27 26 23 20 19 17 15 14 13 12 11 10 10 11 12 13
21 17 29 26 23 23 23 22 17 16 19 21 17 17 14 8 13 14 10 6 8 19 25 25 25 25 26 25 28 32 31 30 29 28 26 24 21 16 17 16 17 15 15 14 14 14 15 15 14
25 24 24 28 33 35 23 21 18 24 17 21 22 20 12 13 16 13 11 8 6 17 24 26 26 25 25 26 25 29 26 29 29 28 26 26 20 16 17 14 18 19 18 17 17 18 19 18 13
25 27 26 30 31 19 18 23 21 27 18 16 18 18 16 17 13 12 10 8 7 12 22 24 24 26 30 27 25 22 24 25 24 28 27 21 23 20 16 14 12 14 13 14 14 13 15 15 15
22 22 25 21 24 21 17 21 24 27 17 15 16 22 23 18 14 11 10 6 8 9 21 23 22 25 28 30 26 25 26 24 23 22 25 24 20 20 18 15 14 13 11 12 12 14 15 15 16
14 17 25 21 21 23 21 25 28 30 26 27 20 22 22 18 18 13 13 13 8 9 11 20 25 24 23 35 24 31 27 25 25 24 24 29 24 22 18 17 16 15 15 14 15 14 15 16 16
15 15 16 20 20 20 21 25 27 29 29 28 23 24 24 25 18 13 12 9 10 9 15 15 22 26 28 29 33 22 25 26 26 26 27 30 30 26 25 18 19 17 15 19 20 19 19 19 17
15 17 17 19 23 23 21 25 21 32 32 19 23 25 18 23 23 16 10 9 9 7 9 13 12 18 27 30 35 25 22 26 25 27 27 32 30 26 27 23 23 21 20 20 15 16 16 14 15
17 15 20 18 6 10 17 19 17 13 10 15 18 15 16 18 18 16 12 9 7 7 12 14 18 15 18 22 23 34 32 29 29 28 28 30 30 28 28 27 25 26 19 20 20 19 17 13 16
14 20 18 9 13 12 16 20 18 12 17 17 19 19 19 15 14 15 11 7 5 5 11 13 16 36 31 12 16 22 30 33 34 31 32 32 35 35 33 30 29 24 25 26 25 23 19 20 17
12 16 12 7 11 5 14 19 19 20 23 20 22 21 21 21 14 14 11 6 5 5 4 8 13 16 46 51 28 25 22 32 34 36 44 38 34 36 35 34 33 27 31 25 26 23 21 25 21
14 15 15 14 10 10 16 20 21 21 19 25 24 25 23 19 19 18 14 10 6 5 5 7 7 13 19 38 48 38 32 23 22 32 40 44 44 45 44 36 32 28 28 28 31 31 24 29 18
15 15 15 13 9 11 19 23 26 27 30 31 27 25 23 21 19 17 15 13 10 7 6 8 10 11 13 24 27 38 32 28 27 33 32 43 54 47 45 45 33 35 38 33 34 33 33 22 18
14 11 10 11 11 12 3 12 7 7 11 11 12 12 13 13 14 17 17 16 14 10 7 9 11 14 15 17 22 27 31 23 24 24 32 42 47 44 45 49 38 38 43 35 30 37 31 28 23
12 10 9 14 15 16 19 11 14 17 11 12 10 6 6 8 10 11 12 14 13 10 7 6 10 12 14 17 17 18 24 34 38 47 39 35 32 22 28 41 40 42 39 34 37 29 34 25 24
11 13 15 17 16 16 20 17 14 11 11 11 10 7 7 8 8 8 9 8 6 6 7 6 6 8 12 12 13 16 21 27 27 33 47 32 29 33 28 43 31 31 33 32 35 33 37 37 25
12 13 12 15 14 15 9 5 11 2 5 2 3 6 7 9 8 10 10 9 7 7 7 7 9 9 9 12 13 15 20 21 26 34 31 26 28 27 34 38 30 33 30 30 29 31 32 33 30
16 16 13 17 13 11 14 7 3 6 9 2 7 9 9 9 10 8 9 9 10 10 11 13 13 14 13 14 14 16 19 17 18 20 26 30 25 27 30 33 30 26 24 25 26 27 30 27 27
18 15 13 16 19 15 18 21 12 13 11 8 9 4 6 9 10 9 9 10 13 13 15 16 18 18 19 19 19 20 22 22 21 23 25 23 33 30 29 27 36 28 22 26 25 28 26 24 23
17 12 6 9 16 19 17 20 14 15 17 11 4 4 7 6 8 10 13 16 20 22 22 21 21 23 22 23 22 20 20 22 24 25 28 29 27 28 34 33 36 35 30 29 28 26 26 24 22
15 17 18 16 11 6 12 9 10 7 1 3 1 6 7 10 16 21 21 22 24 25 26 26 25 24 24 22 21 21 20 20 23 25 26 29 29 26 25 30 30 32 31 30 31 28 21 22 22
18 17 18 12 20 16 16 18 13 2 6 4 6 12 17 17 19 20 18 23 24 24 25 27 29 27 25 22 23 23 23 24 25 26 27 29 28 27 26 30 31 29 30 31 33 29 22 23 19

GFSSGP_850_spd_063.txt.gz
Wind_Speed
10 12 9 8 2 2 4 10 10 16 9 6 16 17 17 16 8 8 7 14 10 17 21 26 24 25 27 26 23 21 18 18 19 19 20 21 20 19 18 17 16 15 14 13 13 12 11 11 11
9 13 6 3 2 1 6 17 11 4 10 9 9 20 22 16 29 20 15 9 9 9 19 26 26 26 27 27 24 22 20 19 19 20 20 21 21 19 18 17 16 15 13 12 12 11 10 10 10
10 9 4 3 3 6 6 4 3 10 14 19 6 6 13 11 17 11 7 7 8 5 15 26 28 28 29 29 26 23 21 20 20 20 20 21 21 19 18 17 15 14 12 11 10 9 9 8 8
8 4 6 1 8 14 15 10 10 9 12 8 13 9 22 15 10 15 4 7 2 4 15 23 28 29 31 33 31 26 24 22 20 20 20 21 20 19 17 16 14 13 11 9 8 7 7 6 6
9 6 2 4 8 12 15 17 4 7 12 19 11 7 19 19 18 14 12 5 6 7 10 23 28 29 31 33 33 31 28 24 22 21 20 19 19 17 16 14 13 11 9 8 6 5 4 4 3
6 4 3 5 9 16 17 21 7 2 9 19 15 6 15 15 15 10 7 11 14 13 10 25 28 30 32 34 33 32 29 27 24 22 21 20 18 17 15 13 12 9 8 6 4 3 2 1 0
5 2 7 10 15 19 19 17 8 8 6 12 11 4 8 11 11 10 6 2 12 22 17 25 29 31 33 33 34 33 31 27 25 23 22 20 19 17 15 13 11 9 7 5 4 3 3 4 4
16 3 13 13 13 17 25 13 16 13 9 15 3 2 4 7 8 6 11 3 5 28 23 20 30 33 35 34 33 32 30 28 26 24 23 22 20 17 15 13 11 8 6 6 5 5 6 7 8
21 9 12 15 18 16 34 8 18 20 14 20 12 9 12 9 2 5 9 11 6 28 26 20 31 34 36 36 34 32 30 28 27 25 24 22 20 18 16 13 11 9 8 8 8 8 10 10 11
10 10 16 9 10 15 28 22 18 6 8 14 14 21 3 3 6 7 4 11 15 24 26 20 27 34 36 36 36 34 33 31 29 26 24 23 21 19 16 13 11 10 10 11 11 11 13 14 14
19 16 11 15 28 35 32 31 32 11 8 14 19 18 11 6 9 7 3 6 3 16 8 22 19 29 35 37 36 35 35 33 31 28 25 23 21 19 17 15 14 13 12 13 15 15 17 16 14
12 22 25 26 33 30 16 27 21 19 22 41 31 22 7 4 4 1 2 3 3 0 9 22 21 20 33 34 32 33 33 34 33 30 27 26 24 22 19 17 15 13 10 9 11 12 13 14 11
11 13 27 30 34 34 31 23 18 17 11 26 15 14 16 12 11 10 7 8 11 12 12 13 25 22 25 35 28 23 29 32 32 31 30 28 26 24 21 19 15 11 11 9 9 10 9 8 10
14 19 19 29 27 26 14 20 17 17 16 8 10 15 21 20 19 17 17 16 8 13 16 15 25 23 26 31 28 21 19 25 31 31 30 30 28 26 25 22 18 15 12 11 12 14 15 17 17
20 9 10 12 9 5 12 12 18 17 20 21 15 16 19 19 18 18 18 21 20 13 12 23 20 20 21 28 19 21 22 19 23 30 30 29 28 27 25 24 22 19 17 17 16 18 20 19 21
8 8 6 7 8 13 6 19 14 20 23 25 20 21 25 22 26 24 18 19 17 15 19 21 25 26 23 25 23 21 19 23 22 20 21 23 24 23 25 26 25 21 19 21 24 23 25 25 27
5 9 9 11 14 14 13 24 13 22 24 21 21 19 27 33 22 20 18 15 24 23 27 18 18 30 29 26 29 33 24 24 19 27 17 22 21 22 22 22 25 25 22 22 20 24 24 24 25
8 8 11 16 16 13 23 23 20 24 25 16 17 14 4 7 12 12 8 19 26 24 26 22 22 22 29 29 29 32 40 32 31 21 25 29 20 21 22 24 26 27 26 26 24 26 29 28 27
16 17 18 12 12 13 8 8 5 6 6 9 17 16 12 14 12 7 11 22 22 19 23 27 22 20 27 30 30 34 38 41 40 37 29 27 28 26 25 28 27 27 28 27 25 26 30 28 30
14 12 8 8 14 11 10 8 6 6 6 12 16 19 24 24 21 17 19 20 16 16 16 17 16 23 20 29 30 32 35 30 37 37 38 42 32 26 28 30 34 30 29 25 22 22 27 32 30
8 5 5 12 15 15 8 7 4 5 11 25 33 30 23 32 28 28 30 24 20 16 14 17 14 15 26 26 29 31 27 27 23 28 29 24 22 24 38 36 35 30 30 30 24 22 26 29 32
8 9 14 16 10 6 4 6 7 5 11 13 28 36 33 23 28 32 34 32 27 21 18 18 17 15 14 21 27 31 32 35 32 40 37 33 30 28 26 36 37 31 30 30 26 24 21 27 29
11 9 12 5 6 6 9 5 7 6 15 18 11 27 36 34 29 23 33 29 20 17 15 16 12 14 16 15 16 24 30 40 38 33 36 33 27 47 37 27 28 20 27 27 24 26 19 19 26
8 3 8 7 2 5 6 6 19 14 17 19 10 22 21 21 20 20 19 21 20 14 15 11 11 10 11 13 16 16 16 19 24 30 30 33 27 31 34 37 34 27 26 28 25 29 28 31 41
8 2 3 3 5 12 5 10 21 11 16 23 14 25 22 17 17 23 24 22 18 17 12 10 9 5 6 5 8 10 14 16 18 21 24 29 31 36 39 38 38 39 35 42 43 43 43 42 49
19 2 3 6 4 8 10 6 7 7 14 18 19 22 22 21 22 22 22 21 18 13 16 16 11 11 7 7 10 10 14 15 16 18 19 21 28 29 27 34 44 46 49 42 49 49 56 56 55
10 5 9 9 9 2 4 10 15 18 7 7 11 15 14 15 20 18 21 19 18 22 21 21 19 17 17 15 16 21 23 22 21 20 17 18 19 23 30 30 28 32 39 37 31 38 38 41 45
6 6 5 1 4 5 6 11 7 9 5 5 5 10 14 9 14 16 19 19 23 22 23 21 15 15 15 15 15 17 19 19 20 22 23 22 22 22 27 26 28 29 31 29 26 25 23 37 54
7 4 3 7 4 4 3 5 5 5 9 10 8 11 5 10 12 14 16 14 14 17 16 12 8 6 12 16 18 18 19 20 16 19 20 22 24 26 29 31 32 34 34 35 34 35 33 36 40
4 7 4 1 4 5 4 10 3 4 9 13 18 15 15 15 19 11 14 18 23 24 24 23 19 18 14 9 13 19 23 23 21 23 23 23 24 25 28 30 32 30 31 33 35 34 32 38 41

GFSSGP_850_spd_069.txt.gz
Wind_Speed
10 12 12 2 3 4 4 3 3 7 7 8 9 3 8 9 2 3 15 26 21 31 33 33 32 31 30 27 25 22 23 24 24 24 23 21 19 18 18 18 18 17 16 16 15 15 13 12 12
10 11 6 2 4 1 5 4 3 3 9 7 6 5 7 3 5 3 13 27 22 31 33 33 32 31 30 28 26 24 24 23 23 23 23 23 22 21 21 20 19 18 17 16 15 14 13 12 11
9 9 2 3 3 5 4 3 5 10 18 7 2 5 4 2 6 5 8 18 26 30 32 32 32 31 29 28 26 26 27 26 25 26 25 24 24 23 22 21 20 18 16 14 13 12 12 10 9
4 3 2 3 7 6 5 5 6 14 9 14 5 4 3 3 2 9 12 13 28 28 29 31 31 31 29 27 26 26 27 28 28 28 27 25 24 23 22 20 19 17 15 13 12 11 10 8 6
3 1 1 1 7 4 3 12 14 11 6 9 1 3 3 6 9 8 12 17 23 26 27 30 31 31 30 28 26 26 27 28 29 29 28 26 25 23 21 19 18 16 14 12 10 8 7 6 5
4 3 2 4 8 9 1 8 13 8 12 6 5 7 2 5 10 9 9 11 18 23 27 29 31 31 31 30 29 28 29 29 28 29 28 27 26 23 21 19 17 15 13 11 8 7 5 4 2
5 4 6 5 5 10 2 3 8 8 16 8 13 6 8 11 14 10 11 17 20 21 25 30 31 31 32 31 30 31 31 31 30 29 28 27 25 23 21 18 16 14 12 10 7 5 4 2 1
4 4 4 5 6 13 5 3 8 16 18 22 6 5 7 16 11 14 15 15 22 25 25 29 33 34 34 33 31 30 30 32 32 30 28 26 25 23 21 18 16 13 10 8 6 4 3 2 2
7 2 5 8 8 14 15 4 14 19 18 19 13 14 21 24 20 18 19 23 25 28 29 32 34 35 36 36 34 31 30 29 29 30 30 28 26 24 21 18 15 12 9 6 4 4 4 6 5
6 4 8 4 8 10 14 8 11 12 22 21 31 8 21 17 18 20 24 27 28 30 32 32 34 37 37 37 36 36 34 33 32 31 30 28 26 23 21 18 16 13 10 7 6 6 7 8 8
6 9 4 5 11 17 20 20 20 8 11 24 28 15 14 12 11 14 16 16 17 25 30 35 37 39 39 40 39 38 37 36 34 33 32 29 26 24 22 20 17 14 11 9 8 8 10 10 8
5 6 9 16 24 24 13 23 18 14 25 26 29 25 20 23 17 16 16 16 19 21 27 33 36 38 40 42 42 41 41 40 38 36 33 31 28 26 23 20 17 14 12 10 9 6 4 2 4
5 6 20 26 28 27 28 21 17 31 34 34 32 37 19 22 21 17 17 16 13 18 23 31 33 36 37 41 43 43 43 42 40 37 35 33 31 28 25 22 20 16 14 12 9 7 5 3 4
2 6 11 11 15 19 10 16 12 31 27 29 29 28 16 23 23 20 20 19 18 14 13 25 26 28 32 38 41 42 43 41 39 37 36 34 31 29 27 24 22 19 15 13 12 11 10 9 8
5 5 7 4 6 4 9 7 15 15 17 22 20 20 15 23 26 24 20 18 16 18 16 20 22 24 32 32 38 41 42 42 41 40 38 35 33 30 29 26 25 21 17 15 14 14 13 13 13
6 3 4 4 1 6 4 14 13 11 13 15 21 22 23 21 21 22 22 20 17 21 22 21 22 25 33 37 38 40 43 44 43 41 39 37 34 31 31 28 27 22 19 18 19 16 16 16 18
5 5 5 7 4 4 6 9 7 15 12 21 25 28 28 29 26 23 23 22 21 23 26 27 26 28 30 36 36 39 40 38 37 38 37 37 36 34 32 29 26 23 22 21 20 20 18 19 18
5 5 6 5 4 1 10 17 9 18 17 25 21 31 32 29 32 31 29 28 27 27 28 32 29 27 27 32 32 33 35 34 36 32 33 34 35 35 33 29 25 22 21 21 19 20 18 21 21
5 5 10 13 15 4 12 13 9 15 18 22 24 25 31 35 31 29 27 31 33 31 32 33 30 27 27 32 32 33 35 36 38 37 41 34 33 32 33 32 24 21 19 17 16 17 18 20 22
8 12 15 11 14 6 10 14 9 7 10 17 23 19 25 23 21 25 26 31 34 37 36 32 30 32 30 34 33 34 34 31 29 30 30 32 29 29 30 28 24 19 18 17 17 18 18 22 23
10 7 12 12 6 5 2 9 6 4 7 14 13 9 11 16 16 20 23 26 32 35 36 35 33 34 34 35 35 36 35 35 30 27 27 27 33 37 37 25 18 15 18 22 17 21 23 23 23
6 9 9 9 4 7 3 11 5 5 8 6 17 24 24 19 17 18 27 30 31 31 31 34 33 31 29 30 33 36 38 36 35 32 27 27 30 35 31 29 30 36 31 29 13 23 25 25 25
7 7 7 9 5 1 2 1 8 2 6 9 9 24 24 30 29 26 23 31 35 35 36 35 31 26 24 22 22 25 30 35 39 37 30 26 32 39 34 35 32 35 37 39 52 42 29 29 28
8 6 5 5 2 3 7 7 14 9 7 5 5 18 28 36 38 34 31 29 40 42 40 36 32 27 25 23 20 21 19 24 31 33 29 28 24 24 31 38 37 33 33 30 31 46 49 51 35
9 6 5 4 3 13 8 4 17 4 6 8 9 19 28 35 42 39 36 31 39 46 41 36 32 28 25 24 21 20 20 21 22 24 28 29 29 30 29 28 27 28 29 27 29 31 36 42 53
3 4 3 7 5 7 4 8 18 4 8 14 4 24 22 29 30 34 36 31 40 44 41 35 28 24 21 20 18 17 13 14 17 17 17 17 17 17 22 29 33 36 33 32 29 31 34 33 40
4 5 3 4 5 4 5 8 13 13 7 4 11 22 28 23 14 11 27 35 42 44 37 31 26 22 19 16 13 13 12 9 10 12 12 12 12 13 14 17 18 22 24 26 29 30 34 37 37
1 3 0 2 4 5 4 5 7 11 8 8 1 15 19 25 27 15 6 21 36 35 33 30 25 23 18 14 16 13 11 9 8 8 11 13 14 16 15 14 16 17 17 20 23 24 26 29 35
2 2 1 2 3 3 3 5 3 5 6 13 7 8 8 10 18 19 16 10 5 24 32 30 27 22 18 18 19 18 16 13 11 11 9 9 8 8 11 13 15 16 19 21 24 25 25 26 27
4 5 5 3 3 3 4 5 4 7 7 15 23 19 17 11 18 19 14 18 15 9 22 34 34 25 22 23 25 22 20 19 18 17 16 15 14 11 9 10 13 14 16 17 19 24 26 27 27

GFSSGP_850_spd_072.txt.gz
Wind_Speed
12 11 11 5 3 4 2 5 2 6 6 6 10 4 3 1 4 4 4 25 22 27 34 34 33 31 28 26 24 23 25 27 26 23 20 16 15 15 15 16 17 17 17 17 16 14 13 13 13
14 10 5 2 4 1 3 3 1 3 13 18 6 4 2 1 1 1 12 24 23 29 34 35 33 31 28 26 24 22 24 25 25 23 20 17 16 16 17 18 18 18 17 17 15 14 12 12 12
12 9 2 4 3 5 4 4 2 7 15 10 3 2 1 2 3 8 14 16 19 29 32 34 33 30 28 25 23 22 23 24 24 22 20 19 19 19 20 20 19 18 17 16 14 13 12 10 10
6 3 3 4 6 6 3 2 5 7 10 8 6 1 1 2 2 5 16 11 19 29 31 33 32 30 28 26 23 23 25 25 24 23 22 22 22 22 21 20 19 18 16 15 14 12 10 9 8
6 1 1 2 5 4 4 10 9 4 9 18 9 1 1 3 11 10 12 13 20 28 31 33 33 31 29 27 24 24 25 25 26 26 26 24 24 23 22 20 19 17 15 14 12 11 9 7 6
4 3 2 5 7 3 3 6 8 4 13 19 12 5 2 7 9 10 12 15 23 24 29 31 32 32 30 28 26 26 26 27 28 29 29 28 26 24 23 20 18 16 14 13 11 9 8 6 4
6 4 5 4 4 7 3 1 4 3 9 7 22 3 5 8 11 8 10 15 22 24 28 31 32 32 30 29 28 28 29 30 31 31 30 29 28 26 23 20 18 15 13 11 9 7 5 4 2
5 4 4 5 5 12 5 2 5 8 6 20 9 1 8 11 14 13 11 15 19 23 27 30 32 32 32 31 29 30 30 31 31 31 31 30 28 26 23 20 17 15 12 10 8 6 4 3 1
6 3 4 7 7 10 2 4 7 12 12 13 16 20 25 16 16 20 19 20 23 24 27 30 32 34 33 32 30 29 29 30 32 32 31 30 28 25 23 20 18 15 13 10 8 6 3 1 2
4 4 7 6 5 6 7 8 13 7 20 14 26 22 20 13 19 25 26 26 27 28 30 31 33 35 35 34 33 32 31 31 33 33 32 30 28 25 22 20 18 15 13 11 8 5 3 3 4
4 4 4 3 7 12 5 8 17 5 18 13 19 24 17 12 18 19 25 26 26 30 31 30 33 36 37 37 36 36 35 34 33 32 32 31 29 27 24 21 19 17 15 12 8 5 5 6 4
1 6 7 11 19 20 10 21 15 19 29 30 26 27 29 18 23 21 21 26 25 29 31 32 33 36 37 39 39 38 37 37 36 35 34 33 31 28 26 23 20 18 15 11 8 6 4 2 2
4 5 13 16 17 19 25 14 17 32 25 31 31 30 28 26 27 24 23 23 25 23 29 31 35 37 38 41 41 41 40 39 39 38 37 35 33 30 27 24 21 19 16 13 10 7 5 4 3
2 4 8 7 11 8 7 11 12 10 13 23 26 26 27 26 28 29 27 25 24 23 24 28 33 37 39 38 40 42 42 42 41 40 38 36 33 32 29 27 24 21 17 13 12 10 9 8 7
3 3 7 4 6 5 4 10 9 17 12 19 25 24 24 19 28 32 31 28 26 22 22 22 26 32 33 34 37 41 44 46 45 42 38 35 33 31 27 26 24 21 17 15 14 11 11 10 11
4 4 3 5 4 7 6 14 8 11 14 17 21 23 21 18 23 32 29 26 26 25 22 19 22 28 31 33 36 40 43 45 43 42 38 36 33 30 28 27 26 22 19 17 18 17 14 13 13
5 2 2 7 6 5 5 6 6 25 16 20 22 25 25 29 27 27 32 30 30 27 24 25 25 27 30 32 34 38 41 42 43 41 41 39 35 33 30 29 27 23 24 20 21 21 18 16 14
4 3 3 4 5 4 10 15 9 24 17 20 21 23 27 30 33 33 30 32 34 33 30 27 27 30 33 36 38 39 39 40 38 39 38 35 34 32 31 31 29 24 25 25 24 22 18 18 14
3 3 5 9 14 5 9 14 12 19 21 21 25 21 23 27 33 36 35 32 33 32 36 34 33 33 34 34 35 37 40 38 34 34 34 32 31 33 34 34 34 29 28 30 22 18 16 18 12
5 5 8 7 11 6 8 13 10 7 10 24 22 18 15 20 26 32 35 34 32 32 35 37 36 39 37 35 32 34 36 34 31 32 32 32 29 27 25 32 35 34 30 30 25 23 16 19 14
4 4 5 7 7 4 5 13 6 6 10 20 19 17 12 12 19 25 28 35 37 37 36 39 39 39 37 33 32 33 32 30 29 29 33 30 28 36 35 28 28 28 33 35 30 21 13 14 14
4 5 6 6 4 5 2 18 9 4 10 9 23 23 19 18 20 19 18 21 26 32 33 37 42 41 39 36 34 35 36 34 29 28 30 32 29 26 27 34 32 33 34 34 31 20 22 24 16
7 3 4 5 7 4 2 5 2 2 7 9 9 22 26 22 20 23 21 22 23 26 24 29 35 35 35 36 35 34 32 29 30 29 27 27 31 31 28 33 38 35 35 29 35 26 29 36 41
1 2 3 2 2 9 8 8 20 17 7 5 7 13 17 22 24 28 30 26 24 28 33 34 37 37 35 32 29 28 29 30 31 31 31 31 30 30 29 34 35 33 33 46 29 35 37 42 46
4 5 4 4 1 9 4 5 16 9 5 8 8 12 10 12 21 28 31 35 31 32 36 39 40 40 37 34 31 29 25 24 25 25 26 30 31 34 34 31 33 32 39 34 29 29 30 26 26
1 5 4 6 6 14 6 7 15 2 3 10 14 5 6 9 11 19 28 33 35 32 38 43 44 42 39 36 30 26 21 17 17 19 20 19 22 26 30 33 31 27 25 26 26 24 24 24 24
0 3 2 3 7 6 5 9 13 5 9 13 3 5 13 16 17 20 19 18 25 26 37 47 48 42 36 29 23 17 16 16 15 15 15 14 14 16 20 21 24 29 32 31 33 31 30 28 24
3 4 1 1 4 6 4 4 7 9 8 10 10 11 13 9 18 21 24 10 7 19 30 45 40 35 29 23 18 15 14 12 12 13 14 14 14 14 14 13 11 12 14 16 18 19 20 21 21
1 1 2 1 3 4 4 3 5 5 5 7 8 14 15 17 13 9 14 19 16 1 19 32 32 29 24 18 16 17 14 12 11 10 11 11 11 10 11 12 11 11 11 12 14 14 16 18 19
4 6 5 4 6 4 3 8 7 2 8 8 17 22 28 26 18 22 20 11 14 14 6 15 26 28 24 23 23 16 16 14 15 13 14 13 11 11 8 7 7 6 6 8 9 11 12 16 19

GFSSGP_850_spd_075.txt.gz
Wind_Speed
10 11 11 4 3 2 2 4 1 2 2 3 11 6 4 3 4 1 3 22 25 28 29 31 31 31 29 26 24 23 23 27 26 22 18 15 15 17 18 18 18 17 16 15 14 14 13 14 13
10 9 6 1 3 5 3 2 3 5 14 14 3 5 5 3 4 5 7 25 29 28 29 31 32 31 29 26 23 22 24 28 25 22 19 17 17 19 19 19 18 17 16 15 14 13 13 13 13
10 6 3 1 2 7 2 5 5 11 10 8 6 2 2 2 3 4 16 20 29 28 29 31 32 31 30 27 25 24 25 27 26 23 20 19 20 21 20 20 19 17 16 15 14 13 12 11 10
5 1 3 5 11 4 2 5 9 12 7 11 10 6 3 3 3 6 21 16 25 28 29 30 31 31 30 28 26 25 26 27 27 24 22 21 21 21 21 20 19 18 16 14 13 12 10 9 7
7 2 6 6 12 5 4 1 7 8 6 11 13 10 5 2 0 8 21 15 24 30 30 31 31 30 29 28 26 25 26 27 27 25 24 24 23 22 21 20 19 18 16 14 12 11 9 8 6
5 3 7 14 16 6 2 2 7 7 8 12 13 11 3 4 0 5 14 13 25 30 30 30 31 30 29 27 25 24 25 27 27 26 25 25 24 24 22 20 19 17 15 14 12 10 8 6 4
7 5 15 14 13 12 5 3 2 4 9 8 15 9 5 13 11 7 10 10 22 29 30 31 31 30 29 27 25 23 25 26 27 27 27 26 25 24 23 20 18 17 15 13 11 9 7 5 3
5 3 11 9 11 19 3 3 6 8 11 10 6 3 5 21 15 10 12 15 21 25 28 30 32 32 31 29 26 23 24 26 27 28 28 27 26 25 23 21 19 16 14 12 10 8 6 4 2
7 5 11 14 11 8 3 3 9 8 15 12 9 14 17 21 9 16 16 19 23 26 27 30 32 34 34 32 28 25 24 26 27 28 28 28 28 26 24 22 19 17 14 12 11 8 7 5 4
7 6 9 4 5 6 6 7 14 11 17 19 22 17 14 17 10 17 22 23 26 26 28 31 32 34 35 34 32 29 29 30 31 31 31 31 30 28 26 22 19 17 15 13 10 8 6 5 5
5 8 4 3 6 8 5 7 11 15 18 19 21 21 19 17 15 16 23 26 25 28 30 32 33 34 35 36 35 34 34 34 34 34 33 32 31 30 27 24 22 20 18 15 12 9 6 6 6
4 5 10 10 16 19 17 19 22 25 27 21 24 26 26 25 20 18 22 28 28 28 29 31 33 35 36 37 37 36 37 37 36 36 35 34 32 30 27 25 23 20 18 15 11 8 6 4 4
5 3 6 11 13 15 18 19 21 26 21 24 25 26 26 26 24 23 24 26 27 28 29 32 33 35 36 38 39 39 39 38 37 36 37 36 35 32 29 27 24 21 18 15 11 8 6 5 5
6 3 4 4 8 9 10 16 10 7 11 19 18 21 23 24 25 25 24 30 29 27 28 31 32 34 33 37 40 41 40 39 38 37 37 36 34 32 30 27 25 23 20 15 12 10 9 8 7
0 3 4 7 6 6 7 15 9 15 13 17 19 19 21 24 24 22 24 29 29 28 29 29 29 33 34 36 37 40 41 41 39 39 38 37 35 33 31 29 26 22 19 15 14 12 10 9 8
1 1 3 2 5 5 5 20 8 7 12 16 18 18 20 16 14 18 28 32 33 33 30 27 29 29 33 34 37 41 42 42 42 42 40 37 35 35 33 31 27 24 22 17 18 15 14 12 10
2 3 1 5 5 6 6 13 7 20 23 16 18 20 22 23 23 19 18 31 35 34 29 28 30 31 30 31 35 41 42 43 39 35 40 36 38 38 35 33 30 26 23 21 21 18 17 15 12
2 2 3 7 3 8 17 19 18 20 20 18 16 18 21 23 24 24 24 22 32 34 33 33 31 30 30 31 36 40 42 42 42 34 32 42 47 42 37 34 31 28 27 24 25 20 21 17 13
3 4 7 11 12 6 13 16 16 21 20 17 17 16 20 22 23 23 25 28 30 35 39 38 36 34 35 36 38 39 39 41 40 46 42 42 40 41 35 34 32 33 30 26 25 20 22 18 12
6 7 9 9 10 5 13 19 14 15 17 21 21 21 18 20 21 22 24 29 34 36 38 44 43 42 39 39 40 40 40 39 39 36 34 36 37 38 40 37 33 35 33 31 32 27 24 22 16
8 7 9 10 9 10 14 20 12 10 13 19 23 23 20 18 19 19 19 18 24 32 36 42 44 46 45 45 43 40 37 34 33 35 33 32 32 34 31 36 38 36 35 34 32 31 31 26 22
7 7 7 7 9 12 8 17 18 15 20 18 20 21 23 21 22 22 22 20 17 19 27 38 44 48 50 49 44 42 39 36 31 31 31 30 32 31 30 32 32 31 28 30 32 27 29 26 20
7 3 7 9 13 15 16 14 14 7 14 15 15 22 24 24 23 25 26 25 23 21 20 23 34 46 49 49 45 43 39 36 31 27 25 27 30 31 28 25 26 25 29 31 27 28 26 27 24
2 4 10 6 7 12 17 16 8 12 16 15 16 21 22 17 22 27 27 28 29 28 26 24 26 31 40 45 42 41 36 33 29 25 26 27 28 28 29 30 31 29 29 30 31 30 26 19 23
1 5 8 7 7 11 7 13 14 20 15 19 21 25 16 11 14 19 23 26 31 33 34 30 29 30 32 37 38 37 35 33 31 28 27 29 31 33 33 35 35 32 30 29 30 31 38 47 34
2 3 5 12 14 19 16 10 8 15 12 18 17 7 7 9 10 13 19 24 30 36 35 35 33 34 35 37 37 35 34 34 31 29 30 30 30 32 34 36 35 34 29 28 28 27 23 25 19
4 4 1 7 14 12 8 16 18 7 13 19 18 18 17 13 14 14 15 23 25 23 31 34 37 37 40 40 39 37 34 31 27 25 24 24 24 25 28 32 32 32 27 25 20 21 20 20 28
2 5 3 2 5 9 9 17 11 7 11 13 18 20 18 21 18 18 19 19 25 25 18 26 35 41 43 42 38 33 28 24 21 19 19 19 20 22 24 25 26 25 25 27 28 28 25 26 26
3 4 2 1 3 5 8 7 3 9 12 14 12 16 17 17 19 21 21 19 16 22 18 15 24 32 38 37 31 28 24 21 18 16 16 18 19 19 19 18 17 17 16 16 16 15 15 15 15
5 8 9 5 5 5 3 15 12 13 5 9 12 11 13 17 17 18 19 20 19 15 16 7 11 20 34 35 33 28 24 23 20 17 15 16 17 17 17 18 17 16 14 13 11 10 8 7 6

GFSSGP_850_spd_078.txt.gz
Wind_Speed
8 7 7 6 7 6 11 7 2 5 4 3 10 8 7 13 7 3 1 11 19 25 26 26 27 29 30 30 28 25 24 23 23 21 18 15 15 17 18 19 18 16 15 13 13 13 13 14 14
9 7 7 6 8 10 10 5 12 1 5 7 4 6 8 7 4 4 3 14 21 24 27 28 28 29 29 29 27 25 26 25 25 21 18 15 16 18 18 18 17 16 15 14 13 13 13 13 12
8 6 11 5 11 12 6 8 6 2 2 7 4 3 5 3 4 4 5 16 23 23 27 28 29 29 29 28 26 25 25 26 25 21 18 17 18 19 19 19 18 16 15 14 13 12 12 12 11
6 7 8 10 15 11 2 6 0 3 2 7 6 4 3 5 5 3 11 17 21 21 24 27 30 29 29 27 25 24 25 27 25 22 19 18 19 20 20 19 18 16 15 14 13 12 12 11 9
10 9 11 15 19 8 4 6 6 5 6 7 9 6 1 8 8 6 13 16 19 20 21 27 29 29 28 26 25 25 26 28 25 23 20 19 20 20 20 19 17 16 15 13 12 11 10 8 6
15 13 14 18 19 8 5 10 8 12 7 7 9 9 7 8 7 6 11 14 17 20 20 28 29 28 27 26 25 25 27 27 26 24 22 21 21 21 20 19 17 16 14 13 12 10 8 7 5
17 13 19 21 17 11 10 10 14 8 8 10 10 8 3 11 9 3 9 11 17 19 20 24 30 29 27 26 26 25 25 27 27 26 24 23 22 22 21 20 18 16 14 12 11 9 8 6 5
17 13 21 20 16 14 9 14 14 13 13 10 7 2 4 16 11 4 8 11 17 19 20 21 25 30 30 28 26 26 24 26 27 27 26 25 24 23 22 20 18 16 14 13 11 9 7 6 4
12 11 15 20 14 12 7 15 19 13 15 16 16 12 11 12 10 5 9 13 17 20 22 22 25 27 27 25 29 27 25 25 26 28 28 26 24 24 23 21 19 17 16 14 11 9 8 6 4
15 13 17 4 2 7 11 15 17 17 21 19 20 18 13 9 7 7 13 16 20 22 23 24 26 26 27 25 25 30 28 28 28 29 30 28 23 19 18 23 21 20 18 15 13 11 8 6 4
15 15 12 5 9 14 18 18 19 20 21 24 20 22 18 16 15 13 15 19 21 21 22 23 25 26 26 25 24 26 23 24 28 31 31 30 22 20 21 17 23 21 19 16 14 11 9 8 8
8 11 11 12 13 15 18 20 22 22 25 24 24 24 24 23 19 16 15 19 21 22 23 24 25 27 28 25 25 24 24 25 24 29 32 29 26 25 22 17 17 21 16 15 14 10 11 9 8
13 7 10 12 12 15 16 20 19 22 18 20 23 23 24 25 23 20 18 16 20 24 24 26 26 27 31 33 26 26 26 26 25 26 32 29 27 26 24 18 16 14 14 15 15 13 11 9 7
8 7 8 8 11 13 15 18 18 13 9 14 16 19 20 22 24 23 20 18 19 24 25 26 28 30 31 34 35 34 32 26 26 25 31 36 34 31 30 28 26 21 17 14 13 13 12 10 9
6 9 11 13 14 10 13 16 20 19 18 14 13 15 17 19 20 22 22 20 19 24 25 28 29 29 32 33 35 35 30 28 27 27 32 36 37 36 33 31 28 26 25 20 18 16 14 12 11
9 7 11 9 7 8 7 13 6 8 9 12 14 14 15 17 16 15 16 15 15 19 22 25 25 28 32 34 36 38 34 33 27 28 33 39 39 38 36 32 31 27 25 22 22 19 15 12 11
9 10 7 4 7 8 11 11 2 7 16 20 19 18 16 17 17 16 17 15 14 18 21 23 26 28 31 31 28 30 31 30 27 27 28 35 40 39 38 33 24 26 25 24 25 21 20 14 13
5 9 8 10 4 9 14 17 17 18 18 20 19 20 19 18 19 16 15 17 17 18 19 21 24 28 26 25 27 25 27 28 29 29 29 37 35 34 38 35 35 32 23 20 20 23 20 19 13
7 8 10 8 9 12 15 16 15 19 19 20 19 17 18 18 16 16 16 19 21 23 25 27 28 31 26 28 28 27 31 30 29 29 32 33 37 44 44 38 38 33 30 28 28 27 25 20 20
10 11 12 9 10 11 15 18 17 18 21 22 21 20 20 21 20 18 18 17 23 26 28 31 33 36 35 30 30 28 27 27 26 26 28 32 35 35 38 35 33 33 31 34 30 30 27 24 19
12 12 11 14 13 16 20 21 17 15 16 17 20 23 24 24 23 23 21 18 18 24 28 34 37 38 39 37 31 31 27 25 26 30 31 34 41 39 40 37 38 36 39 37 34 35 32 22 18
11 4 9 13 14 14 14 17 18 14 14 15 19 21 23 24 23 21 21 22 21 19 19 25 35 42 41 42 32 35 38 35 37 33 31 31 37 41 41 41 43 44 45 40 31 33 32 27 21
9 5 11 15 17 18 20 13 16 17 17 14 10 14 19 25 29 29 25 25 23 21 20 21 25 34 43 38 43 37 36 32 25 25 29 29 30 36 38 39 39 40 40 34 27 26 26 28 25
11 13 15 16 16 15 17 10 6 10 14 13 18 24 25 24 23 17 19 19 21 22 22 22 24 28 33 38 41 43 42 39 29 28 29 29 24 29 33 34 36 35 33 30 29 27 25 28 34
9 13 10 12 12 12 7 10 11 17 10 11 14 20 20 17 17 16 17 16 18 21 23 24 24 27 27 31 38 42 44 37 38 32 27 24 26 26 30 35 34 30 32 27 25 27 28 28 28
5 7 8 13 13 17 19 10 8 7 5 4 6 8 10 13 14 13 13 16 17 19 21 20 23 26 25 27 33 36 38 36 35 32 28 27 26 25 26 28 28 27 24 23 24 25 26 29 31
2 8 8 11 16 15 13 15 14 7 4 5 5 8 10 14 19 21 20 20 21 21 23 23 20 23 26 28 29 32 34 35 33 31 29 26 27 26 24 22 22 24 23 23 22 21 24 26 26
8 5 6 4 5 10 9 16 13 3 6 9 13 15 19 20 20 23 24 22 21 21 22 23 21 19 23 27 29 32 35 35 31 29 27 27 24 23 22 21 21 22 22 21 23 21 20 22 22
6 8 6 4 4 5 10 8 8 13 13 15 10 16 21 20 22 22 25 24 22 20 20 22 21 18 19 24 27 29 29 29 29 27 26 25 26 26 25 22 20 19 20 20 21 20 19 20 20
10 12 11 8 7 7 8 18 13 7 9 13 20 29 22 19 21 20 23 24 22 22 21 18 19 17 14 20 23 27 27 28 28 28 28 27 25 23 20 17 17 16 16 16 16 17 17 16 16